Wind_Speed
24 24 24 24 24 24 24 24 24 24 23 24 24 23 23 24 25 25 25 25 25 26 26 25 24 24 24 24 23 22 21 21 21 22 22 22 23 24 24 24 23 23 22
24 24 25 25 25 24 24 24 25 25 25 25 25 25 25 25 25 24 26 26 26 26 27 26 26 26 25 25 24 23 23 22 22 21 21 22 23 24 23 24 24 24 24
26 26 27 27 27 27 27 27 27 27 27 27 26 25 25 26 26 26 27 27 28 27 27 27 26 27 27 27 26 25 23 22 21 22 22 21 22 24 24 24 25 25 26
27 27 28 28 29 30 29 29 28 28 29 29 28 27 27 27 27 27 28 28 29 28 28 28 27 27 27 27 27 26 25 24 23 22 22 23 22 23 24 24 25 26 26
28 29 29 30 31 31 31 31 30 30 29 29 29 28 28 27 28 28 28 28 29 29 29 29 29 29 28 28 28 27 26 26 24 23 22 23 23 22 23 24 24 26 26
29 30 30 31 31 32 32 32 32 31 30 30 30 29 28 28 28 29 29 29 29 28 28 29 29 30 28 28 28 27 27 27 26 24 23 24 24 24 24 23 24 25 26
30 31 32 32 32 32 33 33 33 32 31 30 30 29 29 28 28 28 28 28 29 29 28 28 29 29 28 29 29 29 28 28 27 26 25 24 24 24 24 24 24 25 26
31 32 32 32 33 32 32 32 32 32 31 31 30 29 29 29 29 28 28 28 28 29 29 29 29 28 29 29 30 30 29 28 28 27 27 26 26 25 24 24 25 25 26
32 32 33 33 33 32 31 31 32 32 30 30 30 29 29 29 28 28 28 29 29 28 29 29 29 29 28 29 29 28 28 28 28 28 27 27 26 26 25 25 25 24 25
31 31 32 32 32 32 31 31 31 30 29 29 30 30 29 29 29 29 29 29 29 28 28 28 28 28 28 29 29 28 28 28 27 27 27 26 25 25 24 23 23 23 23
30 31 31 31 31 30 30 30 29 28 27 28 28 28 29 29 29 29 28 29 29 29 29 29 29 28 29 29 29 29 28 28 28 27 26 25 25 24 23 23 22 23 23
29 30 30 30 29 28 27 26 26 26 26 26 26 27 27 28 28 28 28 28 28 29 28 29 28 28 28 29 29 30 28 27 27 27 26 26 25 24 24 24 24 23 23
28 28 28 28 27 26 24 24 23 23 24 24 24 25 26 26 26 26 26 26 27 27 27 28 27 27 27 27 28 29 28 27 27 26 27 26 25 25 25 25 25 24 23
27 27 27 26 25 24 23 22 22 22 23 22 23 24 25 25 24 24 23 23 24 24 25 26 25 25 25 26 26 27 27 27 27 26 26 26 26 26 25 25 24 24 23
27 26 25 24 24 23 22 21 21 20 20 20 20 21 22 22 22 22 22 22 23 23 23 24 24 23 24 25 24 24 25 25 26 26 25 25 27 27 26 25 24 24 24
26 25 24 23 23 22 20 20 19 19 19 19 19 19 19 20 20 21 21 21 22 22 21 21 22 22 22 23 23 22 22 23 25 25 25 25 26 26 26 26 26 26 25
24 23 23 22 21 19 19 18 17 17 17 17 17 17 18 18 18 19 19 19 19 19 20 19 19 20 20 20 21 21 21 22 23 25 25 26 26 25 26 27 27 26 26
21 20 19 19 18 17 17 17 17 16 16 17 17 17 17 16 16 16 16 15 16 17 17 16 16 17 18 18 19 20 20 21 22 23 24 25 25 25 25 26 26 26 26
19 18 17 16 16 15 16 16 15 15 15 15 15 15 14 14 14 14 13 12 13 14 15 16 16 16 17 17 18 17 18 19 21 22 22 23 23 24 24 24 25 25 25
16 16 15 14 14 15 15 15 15 15 15 14 14 13 13 13 13 12 11 11 11 12 12 14 15 16 16 16 16 16 16 17 18 19 20 21 21 22 23 23 23 24 24
14 14 13 13 14 14 15 15 15 14 14 13 13 12 12 12 12 11 10 11 11 10 11 12 12 14 14 14 14 14 15 15 16 17 18 18 20 20 20 20 21 22 23
13 13 12 13 13 14 15 15 15 13 13 12 11 11 10 10 10 11 10 9 9 9 9 9 9 10 10 11 12 12 12 12 13 14 15 16 17 18 19 19 20 21 22
13 12 12 12 13 14 14 14 13 13 12 11 10 9 10 10 10 9 9 8 8 8 7 6 6 7 9 9 9 10 11 12 12 12 13 13 15 16 17 17 18 19 19
13 13 12 12 13 14 13 13 13 12 11 10 9 9 9 8 8 8 8 8 8 7 6 5 5 6 7 7 7 8 9 9 10 11 11 11 12 14 14 15 16 17 18
12 11 11 12 13 13 13 13 12 12 11 10 8 8 8 8 8 8 7 7 6 6 5 5 4 4 5 5 6 8 8 9 9 10 11 11 12 12 13 14 15 15 16
12 12 13 13 13 12 13 13 12 11 10 9 9 8 8 7 7 7 8 7 6 6 6 5 5 5 5 6 7 8 8 9 10 10 11 11 11 12 12 13 13 14 14
Wind_Direction
295 293 292 292 292 293 294 293 291 288 286 285 281 279 277 275 275 274 272 271 271 270 269 269 264 259 255 254 255 257 257 255 257 253 248 245 243 241 240 239 240 241 242
295 294 293 292 292 292 293 292 291 290 288 287 285 281 278 276 274 274 274 271 272 271 268 267 264 258 255 253 254 256 257 258 256 253 250 246 243 241 242 242 242 242 243
294 293 293 293 293 293 292 291 290 289 287 286 284 282 278 277 275 275 275 273 273 271 267 264 261 259 256 254 253 253 254 256 257 254 249 248 247 245 244 243 244 245 245
294 293 292 292 292 292 292 291 289 288 286 285 284 283 280 278 277 276 274 273 272 271 267 263 259 258 255 254 253 252 253 255 258 257 252 251 250 249 245 245 246 247 247
294 294 293 292 291 291 291 290 289 288 286 284 283 283 281 278 275 275 274 272 270 269 267 263 259 257 256 254 254 253 254 255 257 258 255 253 252 251 249 247 248 247 247
294 293 293 291 290 290 290 289 289 289 286 283 281 280 278 276 276 274 273 270 267 268 267 262 260 259 257 254 254 255 254 254 255 254 254 256 255 253 252 251 251 249 248
297 296 294 293 290 290 290 289 287 287 286 284 281 279 277 277 276 275 274 270 267 268 267 263 259 259 257 256 256 256 254 253 254 254 253 254 257 255 253 253 253 253 252
297 297 296 295 292 289 289 289 287 286 285 284 282 279 277 276 276 274 272 270 268 265 265 263 260 258 257 258 259 257 255 253 253 253 252 253 255 256 254 255 256 255 255
295 296 295 294 291 290 288 288 288 286 284 283 282 280 279 276 276 275 273 271 268 265 263 263 260 259 259 259 259 259 258 254 254 252 253 253 254 254 255 258 258 259 257
296 296 297 296 293 291 288 287 288 286 283 282 282 281 279 277 276 275 275 272 269 266 264 263 261 259 258 258 257 257 258 256 257 255 255 255 255 256 257 258 261 260 260
299 297 297 297 295 293 290 289 288 286 283 281 280 280 279 278 276 276 273 271 269 267 265 264 261 260 259 260 259 258 258 257 257 256 256 256 257 258 258 258 260 262 262
302 300 300 299 298 296 293 291 289 286 283 281 280 280 280 280 276 275 273 269 266 265 265 264 262 261 261 261 259 258 258 256 255 254 254 255 255 257 258 259 260 262 262
303 302 303 301 301 298 295 293 290 288 286 283 282 282 282 280 278 277 275 269 265 264 263 263 262 261 261 260 257 256 254 253 253 253 254 253 253 256 258 260 261 262 262
303 302 303 302 302 300 298 297 294 290 289 287 285 284 283 281 278 279 277 272 269 266 264 263 262 262 261 258 256 254 253 253 253 254 254 254 254 255 256 257 259 260 260
302 302 302 302 302 301 299 298 296 294 294 294 293 289 286 283 280 280 278 273 270 269 268 265 263 263 262 257 256 254 255 255 255 255 256 257 258 256 255 256 257 258 260
301 300 302 302 302 301 300 298 296 295 296 297 296 293 290 286 283 281 282 278 272 270 270 267 264 262 261 258 256 255 256 255 256 256 257 257 258 257 255 256 258 258 259
302 302 302 302 302 301 300 299 298 296 297 298 298 296 293 290 285 284 284 278 272 270 269 267 266 265 263 259 256 257 257 257 256 256 256 255 255 255 256 257 258 259 260
305 305 304 304 304 303 303 302 300 300 299 299 298 298 297 294 290 287 285 279 274 273 267 263 263 262 263 262 260 260 258 256 256 256 255 255 255 255 257 259 260 260 261
308 308 307 308 308 308 307 307 303 303 302 301 301 300 299 297 294 292 286 282 278 273 266 261 263 263 262 262 263 263 260 258 257 256 257 256 256 255 257 258 260 260 261
312 313 312 311 312 313 311 309 308 306 305 303 305 302 300 298 297 295 291 291 286 278 268 264 264 265 265 263 262 262 260 260 259 258 257 255 255 255 257 259 260 261 261
313 315 315 313 315 317 316 315 313 312 309 306 306 304 303 302 301 294 289 292 291 284 275 271 270 267 265 263 263 262 260 261 260 260 258 255 254 255 258 261 262 261 259
315 317 318 319 320 322 320 321 321 317 313 309 306 304 300 299 301 294 291 288 287 287 281 274 276 273 266 263 265 264 263 264 264 263 262 258 256 255 257 260 261 259 257
325 324 322 322 325 326 324 326 324 322 319 315 308 302 297 295 298 297 291 296 295 292 284 274 276 275 272 268 267 264 263 261 260 263 263 261 258 257 258 260 261 259 258
328 330 329 328 326 326 326 326 327 324 324 321 311 306 304 301 300 300 296 299 301 294 287 279 285 280 279 275 271 264 262 261 260 261 262 263 260 260 259 258 260 259 261
337 336 334 334 332 329 329 331 333 333 330 327 322 316 311 302 301 304 303 298 298 295 293 291 293 284 291 290 275 264 262 263 262 264 264 266 267 265 262 262 263 264 264
339 340 342 340 338 337 337 337 338 338 334 329 324 321 318 309 303 306 308 302 297 297 295 293 289 283 289 291 287 277 270 267 264 267 266 267 268 266 263 263 266 267 267
Height
5856 5855 5853 5852 5851 5850 5849 5848 5846 5846 5845 5843 5843 5842 5841 5842 5842 5841 5841 5842 5842 5842 5842 5843 5844 5845 5846 5847 5848 5849 5850 5852 5853 5854 5855 5856 5858 5859 5861 5862 5864 5866 5867
5852 5850 5849 5847 5846 5845 5844 5842 5841 5840 5839 5838 5837 5836 5836 5836 5836 5836 5836 5836 5836 5836 5836 5837 5838 5839 5840 5842 5843 5844 5845 5846 5847 5848 5850 5851 5853 5854 5856 5858 5859 5861 5862
5846 5845 5844 5842 5840 5839 5838 5837 5835 5834 5833 5832 5831 5831 5830 5830 5829 5829 5829 5829 5829 5830 5830 5831 5832 5833 5834 5836 5837 5838 5839 5841 5842 5843 5844 5846 5847 5849 5851 5852 5854 5856 5857
5841 5839 5838 5836 5835 5833 5832 5830 5829 5827 5826 5826 5824 5824 5823 5823 5823 5822 5822 5822 5822 5823 5823 5823 5825 5826 5828 5829 5831 5832 5834 5835 5837 5838 5839 5840 5841 5843 5845 5846 5848 5850 5852
5835 5833 5831 5830 5828 5827 5825 5824 5822 5821 5819 5818 5817 5816 5816 5815 5815 5815 5814 5815 5815 5815 5816 5816 5818 5820 5821 5823 5824 5826 5828 5829 5831 5832 5833 5834 5836 5837 5839 5841 5842 5844 5846
5829 5826 5825 5823 5821 5820 5818 5816 5814 5813 5812 5811 5810 5809 5808 5808 5807 5807 5807 5807 5807 5808 5808 5809 5811 5812 5814 5816 5818 5819 5821 5823 5825 5826 5827 5829 5830 5832 5833 5834 5836 5838 5839
5822 5820 5818 5815 5813 5812 5810 5808 5806 5805 5804 5803 5802 5801 5801 5800 5800 5800 5799 5800 5799 5800 5801 5801 5802 5805 5807 5809 5811 5812 5814 5816 5818 5820 5821 5823 5824 5826 5827 5828 5830 5831 5833
5815 5813 5811 5808 5806 5804 5802 5800 5799 5797 5796 5795 5794 5793 5793 5793 5792 5792 5792 5792 5792 5793 5794 5794 5796 5798 5800 5802 5803 5805 5807 5809 5811 5813 5814 5816 5818 5819 5821 5822 5823 5825 5826
5808 5806 5803 5800 5798 5796 5794 5793 5791 5789 5788 5787 5786 5785 5785 5785 5785 5785 5784 5784 5785 5785 5786 5787 5788 5790 5792 5794 5796 5798 5799 5802 5804 5806 5807 5809 5811 5812 5814 5816 5817 5818 5819
5801 5799 5796 5793 5790 5788 5786 5784 5783 5781 5780 5779 5778 5777 5777 5777 5777 5777 5777 5776 5777 5777 5778 5779 5781 5782 5784 5786 5788 5791 5793 5795 5797 5799 5801 5802 5804 5806 5807 5809 5810 5812 5812
5794 5791 5788 5785 5783 5780 5778 5776 5775 5773 5772 5771 5771 5770 5770 5769 5769 5769 5769 5769 5769 5770 5771 5772 5773 5775 5777 5778 5781 5783 5786 5788 5790 5792 5794 5796 5797 5799 5801 5802 5803 5805 5806
5787 5784 5781 5778 5775 5773 5770 5768 5767 5766 5765 5764 5763 5763 5762 5762 5761 5761 5761 5761 5762 5762 5763 5764 5766 5768 5769 5771 5773 5776 5778 5780 5782 5784 5786 5788 5791 5792 5794 5796 5797 5798 5800
5780 5777 5774 5771 5769 5766 5764 5762 5760 5759 5758 5757 5756 5755 5755 5754 5754 5753 5753 5753 5754 5755 5756 5757 5759 5761 5762 5764 5765 5768 5770 5773 5775 5777 5779 5781 5783 5786 5788 5789 5790 5792 5793
5774 5771 5768 5766 5763 5760 5758 5756 5755 5753 5752 5751 5750 5749 5748 5747 5747 5746 5746 5746 5747 5748 5749 5750 5752 5753 5754 5756 5757 5760 5763 5765 5768 5770 5772 5774 5776 5778 5781 5782 5784 5785 5787
5768 5765 5763 5760 5757 5755 5753 5751 5750 5748 5747 5745 5744 5743 5742 5741 5741 5740 5740 5740 5741 5742 5743 5743 5745 5746 5747 5749 5750 5752 5755 5758 5760 5763 5765 5767 5769 5771 5773 5775 5777 5779 5780
5762 5760 5757 5755 5752 5750 5748 5746 5745 5743 5742 5741 5739 5738 5737 5736 5735 5735 5734 5734 5734 5735 5736 5737 5738 5739 5740 5742 5744 5746 5748 5750 5753 5755 5757 5759 5762 5763 5766 5768 5770 5771 5773
5757 5754 5752 5749 5747 5745 5743 5742 5740 5739 5738 5736 5735 5734 5733 5731 5731 5730 5729 5729 5729 5729 5730 5731 5731 5733 5734 5736 5737 5738 5740 5743 5745 5747 5749 5752 5754 5756 5758 5760 5762 5764 5765
5752 5750 5747 5745 5743 5741 5739 5737 5736 5735 5733 5732 5731 5730 5728 5727 5726 5725 5724 5724 5724 5724 5724 5725 5726 5727 5728 5730 5731 5732 5734 5735 5738 5740 5742 5744 5746 5749 5751 5753 5754 5756 5757
5748 5745 5743 5741 5739 5737 5735 5733 5732 5730 5729 5727 5726 5725 5724 5723 5722 5721 5721 5720 5720 5719 5720 5720 5720 5721 5723 5724 5725 5726 5727 5729 5731 5733 5735 5737 5739 5741 5743 5745 5747 5748 5750
5744 5742 5740 5738 5736 5734 5732 5730 5729 5727 5725 5724 5723 5722 5721 5720 5719 5718 5717 5717 5716 5716 5715 5716 5716 5717 5717 5718 5720 5721 5722 5723 5725 5727 5729 5730 5732 5734 5736 5738 5740 5741 5742
5742 5740 5737 5735 5733 5732 5730 5728 5725 5723 5722 5721 5720 5718 5718 5717 5716 5715 5715 5714 5713 5713 5712 5712 5713 5713 5713 5714 5715 5716 5717 5719 5720 5722 5723 5725 5726 5728 5730 5731 5732 5734 5735
5739 5737 5735 5733 5731 5729 5727 5725 5723 5720 5719 5718 5717 5716 5715 5715 5714 5713 5712 5712 5711 5710 5710 5710 5710 5710 5710 5711 5711 5713 5714 5715 5716 5718 5719 5720 5722 5723 5724 5725 5726 5727 5728
5737 5735 5733 5731 5729 5727 5725 5723 5720 5718 5717 5715 5714 5714 5713 5712 5712 5711 5711 5710 5709 5709 5708 5708 5708 5708 5708 5708 5709 5710 5711 5712 5713 5714 5715 5716 5717 5718 5719 5720 5721 5722 5722
5735 5733 5731 5730 5728 5726 5723 5721 5719 5717 5715 5714 5713 5712 5711 5711 5710 5710 5709 5709 5708 5707 5707 5706 5706 5707 5707 5707 5707 5708 5708 5709 5710 5711 5711 5712 5713 5714 5715 5715 5716 5717 5717
5734 5732 5730 5729 5727 5724 5722 5719 5717 5715 5714 5713 5711 5710 5710 5710 5709 5708 5708 5707 5707 5706 5706 5705 5705 5706 5706 5705 5705 5706 5706 5707 5707 5708 5708 5709 5710 5710 5711 5711 5711 5712 5712
5734 5732 5730 5728 5725 5723 5721 5718 5716 5714 5713 5712 5710 5709 5709 5708 5708 5707 5706 5706 5705 5705 5705 5705 5705 5705 5704 5704 5704 5704 5704 5704 5705 5705 5705 5706 5706 5707 5707 5707 5708 5708 5708